TimeMDT,TemperatureF,Dew PointF,Humidity,Sea Level PressureIn,VisibilityMPH,Wind Direction,Wind SpeedMPH,Gust SpeedMPH,PrecipitationIn,Events,Conditions,WindDirDegrees,DateUTC
12:53 AM,54.0,25.0,33,29.50,10.0,SSW,16.1,-,N/A,,Overcast,200,2013-04-15 06:53:00
1:53 AM,53.1,25.0,34,29.50,10.0,SSW,19.6,-,N/A,,Mostly Cloudy,200,2013-04-15 07:53:00
2:53 AM,51.1,24.1,35,29.48,10.0,South,16.1,-,N/A,,Clear,190,2013-04-15 08:53:00
3:53 AM,51.1,24.1,35,29.47,10.0,South,17.3,-,N/A,,Clear,190,2013-04-15 09:53:00
4:53 AM,46.0,24.1,42,29.49,10.0,South,10.4,-,N/A,,Clear,190,2013-04-15 10:53:00
5:53 AM,52.0,25.0,35,29.48,10.0,South,17.3,24.2,N/A,,Overcast,170,2013-04-15 11:53:00
6:53 AM,50.0,25.0,38,29.50,10.0,South,17.3,-,N/A,,Overcast,190,2013-04-15 12:53:00
7:53 AM,53.1,26.1,35,29.53,10.0,SSW,16.1,24.2,N/A,,Mostly Cloudy,200,2013-04-15 13:53:00
8:53 AM,54.0,25.0,33,29.57,10.0,SSW,18.4,26.5,N/A,,Overcast,200,2013-04-15 14:53:00
9:53 AM,55.0,25.0,31,29.58,10.0,South,17.3,-,N/A,,Overcast,190,2013-04-15 15:53:00
10:53 AM,59.0,24.1,26,29.55,10.0,SSW,17.3,25.3,N/A,,Mostly Cloudy,200,2013-04-15 16:53:00
11:53 AM,59.0,21.9,24,29.55,10.0,SW,15.0,25.3,N/A,,Mostly Cloudy,230,2013-04-15 17:53:00
12:53 PM,64.0,21.9,20,29.48,10.0,SW,24.2,28.8,N/A,,Partly Cloudy,220,2013-04-15 18:53:00
1:53 PM,64.9,21.9,19,29.47,10.0,SSW,16.1,28.8,N/A,,Mostly Cloudy,200,2013-04-15 19:53:00
2:53 PM,66.9,21.0,17,29.45,10.0,SSW,18.4,32.2,N/A,,Partly Cloudy,210,2013-04-15 20:53:00
3:53 PM,69.1,14.0,12,29.42,8.0,WSW,19.6,38.0,N/A,,Mostly Cloudy,240,2013-04-15 21:53:00
4:53 PM,69.1,12.0,11,29.41,7.0,WSW,24.2,36.8,N/A,,Overcast,250,2013-04-15 22:53:00
5:53 PM,66.9,14.0,13,29.40,7.0,WSW,18.4,38.0,N/A,,Overcast,240,2013-04-15 23:53:00
6:53 PM,64.9,15.1,15,29.42,10.0,WSW,16.1,25.3,N/A,,Overcast,240,2013-04-16 00:53:00
7:53 PM,63.0,12.9,14,29.42,10.0,WSW,16.1,29.9,N/A,,Overcast,240,2013-04-16 01:53:00
8:53 PM,61.0,15.1,17,29.44,10.0,WSW,12.7,21.9,N/A,,Overcast,240,2013-04-16 02:53:00
9:53 PM,55.0,19.0,24,29.48,10.0,SSW,16.1,-,N/A,,Overcast,210,2013-04-16 03:53:00
10:53 PM,54.0,19.0,25,29.49,10.0,SW,11.5,-,N/A,,Clear,230,2013-04-16 04:53:00
11:53 PM,52.0,19.9,28,29.51,10.0,SSW,13.8,20.7,N/A,,Clear,210,2013-04-16 05:53:00